This is the latest recevied weather packets stored in our database for station/object WE8M. If no packets are shown the sender has not sent any weather packets the latest 10 day(s).
| Time | Temp. | Humidity | Pressure | Rain* | Wind** | Luminosity | Snow |
|---|---|---|---|---|---|---|---|
| 1777763371 | 9.44° C | 45% | 1016.8 hPa | 0 mm | - | - | - |
| 1777763068 | 10° C | 46% | 1017 hPa | 0 mm | - | - | - |
| 1777762766 | 9.44° C | 46% | 1016.9 hPa | 0 mm | - | - | - |
| 1777762462 | 9.44° C | 42% | 1017 hPa | 0 mm | - | - | - |
| 1777762159 | 9.44° C | 40% | 1016.9 hPa | 0 mm | - | - | - |
| 1777761855 | 10° C | 41% | 1016.9 hPa | 0 mm | - | - | - |
| 1777761552 | 10° C | 43% | 1016.7 hPa | 0 mm | - | - | - |
| 1777761250 | 9.44° C | 47% | 1016.8 hPa | 0 mm | - | - | - |
| 1777760948 | 10° C | 47% | 1016.8 hPa | 0 mm | - | - | - |
| 1777760645 | 10° C | 41% | 1016.9 hPa | 0 mm | - | - | - |
| 1777760340 | 9.44° C | 43% | 1016.7 hPa | 0 mm | - | - | - |
| 1777760037 | 10° C | 46% | 1016.9 hPa | 0 mm | - | - | - |
| 1777759734 | 10.56° C | 45% | 1016.9 hPa | 0 mm | - | - | - |
| 1777759430 | 10.56° C | 43% | 1016.7 hPa | 0 mm | - | - | - |
| 1777759127 | 10° C | 43% | 1016.8 hPa | 0 mm | - | - | - |
| 1777758824 | 10° C | 48% | 1016.7 hPa | 0 mm | - | - | - |
| 1777758521 | 10° C | 47% | 1016.7 hPa | 0 mm | - | - | - |
| 1777758217 | 10° C | 49% | 1016.6 hPa | 0 mm | - | - | - |
| 1777757915 | 11.11° C | 40% | 1016.5 hPa | 0 mm | - | - | - |
| 1777757612 | 10.56° C | 48% | 1016.7 hPa | 0 mm | - | - | - |
| 1777757311 | 10° C | 48% | 1016.6 hPa | 0 mm | - | - | - |
| 1777757009 | 10° C | 45% | 1016.3 hPa | 0 mm | - | - | - |
| 1777756706 | 10.56° C | 44% | 1016.5 hPa | 0 mm | - | - | - |
| 1777756401 | 10.56° C | 41% | 1016.6 hPa | 0 mm | - | - | - |
| 1777756099 | 10.56° C | 43% | 1016.7 hPa | 0 mm | - | - | - |
* Rain latest hour (hover to see other rain measurements)
** Current wind speed in m/s (hover to see current wind gust speed)